• en France
  • Liste des pays
  • À 7 jours
  • Température de l'eau
  • Carte satellitaire
  • Carte météo
  • Widgets météo
  • user-avatar
    Se connecter

    Météo par heure à Ibigs

    Ce jour, 23 Mai, Mercredi

    Heure Température Précipitation Vent Pression Humidité
    00:00 +20°C° 0,3 mm 1 m/s 649 mmHg 59%
    01:00 +20°C° 0,3 mm 1 m/s 649 mmHg 59%
    02:00 +19°C° 0 mm 1 m/s 649 mmHg 59%
    03:00 +19°C° 0 mm 1 m/s 649 mmHg 60%
    04:00 +19°C° 0 mm 1 m/s 649 mmHg 60%
    05:00 +20°C° 0 mm 1 m/s 649 mmHg 59%
    06:00 +20°C° 0 mm 1 m/s 649 mmHg 58%
    07:00 +21°C° 0 mm 1 m/s 650 mmHg 57%
    08:00 +23°C° 0 mm 1 m/s 650 mmHg 55%
    09:00 +24°C° 0 mm 2 m/s 651 mmHg 53%
    10:00 +26°C° 0 mm 2 m/s 652 mmHg 51%
    11:00 +26°C° 0,1 mm 2 m/s 651 mmHg 51%
    12:00 +26°C° 0,1 mm 2 m/s 651 mmHg 51%
    13:00 +27°C° 0,1 mm 2 m/s 651 mmHg 51%
    14:00 +26°C° 0,1 mm 2 m/s 650 mmHg 54%
    15:00 +26°C° 0,1 mm 2 m/s 650 mmHg 56%
    16:00 +26°C° 0,1 mm 2 m/s 649 mmHg 59%
    17:00 +24°C° 0,1 mm 1 m/s 649 mmHg 64%
    18:00 +23°C° 0,1 mm 1 m/s 649 mmHg 69%
    19:00 +21°C° 0,1 mm 1 m/s 649 mmHg 74%
    20:00 +21°C° 0,1 mm 1 m/s 650 mmHg 73%
    21:00 +21°C° 0,1 mm 1 m/s 650 mmHg 73%
    22:00 +20°C° 0,1 mm 1 m/s 650 mmHg 73%
    23:00 +20°C° 0 mm 1 m/s 650 mmHg 73%

    Demain, 24 Mai, Jeudi

    Heure Température Précipitation Vent Pression Humidité
    00:00 +20°C° 0 mm 1 m/s 650 mmHg 73%
    01:00 +19°C° 0 mm 1 m/s 649 mmHg 73%
    02:00 +19°C° 0 mm 1 m/s 649 mmHg 74%
    03:00 +19°C° 0 mm 1 m/s 649 mmHg 74%
    04:00 +19°C° 0 mm 1 m/s 649 mmHg 74%
    05:00 +19°C° 0,1 mm 1 m/s 649 mmHg 74%
    06:00 +20°C° 0,1 mm 1 m/s 650 mmHg 74%
    07:00 +20°C° 0,1 mm 1 m/s 650 mmHg 74%
    08:00 +22°C° 0,1 mm 1 m/s 651 mmHg 68%
    09:00 +23°C° 0,1 mm 2 m/s 651 mmHg 62%
    10:00 +25°C° 0,1 mm 2 m/s 652 mmHg 57%
    11:00 +26°C° 0 mm 2 m/s 652 mmHg 55%
    12:00 +27°C° 0 mm 2 m/s 651 mmHg 52%
    13:00 +28°C° 0 mm 2 m/s 651 mmHg 50%
    14:00 +27°C° 0,1 mm 2 m/s 650 mmHg 52%
    15:00 +26°C° 0,1 mm 2 m/s 650 mmHg 54%
    16:00 +26°C° 0,1 mm 2 m/s 649 mmHg 56%
    17:00 +24°C° 0 mm 1 m/s 649 mmHg 62%
    18:00 +23°C° 0 mm 1 m/s 649 mmHg 68%
    19:00 +21°C° 0 mm 1 m/s 649 mmHg 74%
    20:00 +21°C° 0 mm 1 m/s 649 mmHg 75%
    21:00 +20°C° 0 mm 1 m/s 650 mmHg 75%
    22:00 +20°C° 0 mm 1 m/s 650 mmHg 76%
    23:00 +20°C° 0 mm 1 m/s 650 mmHg 75%

    Après-demain, 25 Mai, Vendredi

    Heure Température Précipitation Vent Pression Humidité
    00:00 +19°C° 0 mm 1 m/s 650 mmHg 75%
    01:00 +19°C° 0 mm 1 m/s 649 mmHg 75%
    02:00 +19°C° 0 mm 1 m/s 649 mmHg 74%
    03:00 +19°C° 0 mm 1 m/s 649 mmHg 73%
    04:00 +18°C° 0 mm 1 m/s 648 mmHg 73%
    05:00 +19°C° 0 mm 1 m/s 649 mmHg 70%
    06:00 +20°C° 0 mm 1 m/s 649 mmHg 67%
    07:00 +21°C° 0 mm 1 m/s 650 mmHg 64%
    08:00 +23°C° 0 mm 1 m/s 650 mmHg 60%
    09:00 +24°C° 0 mm 1 m/s 651 mmHg 55%
    10:00 +26°C° 0 mm 2 m/s 651 mmHg 51%
    11:00 +26°C° 0,1 mm 2 m/s 651 mmHg 52%
    12:00 +26°C° 0,1 mm 2 m/s 650 mmHg 54%
    13:00 +26°C° 0,1 mm 2 m/s 650 mmHg 55%
    14:00 +25°C° 0,1 mm 2 m/s 649 mmHg 57%
    15:00 +25°C° 0,1 mm 2 m/s 648 mmHg 59%
    16:00 +24°C° 0,1 mm 2 m/s 648 mmHg 61%
    17:00 +23°C° 0 mm 2 m/s 648 mmHg 65%
    18:00 +22°C° 0 mm 1 m/s 648 mmHg 69%
    19:00 +20°C° 0 mm 1 m/s 648 mmHg 73%
    20:00 +20°C° 0 mm 1 m/s 649 mmHg 72%
    21:00 +20°C° 0 mm 1 m/s 649 mmHg 71%
    22:00 +20°C° 0 mm 1 m/s 649 mmHg 70%
    23:00 +20°C° 0 mm 1 m/s 649 mmHg 69%

    26 Mai, Samedi

    Heure Température Précipitation Vent Pression Humidité
    00:00 +19°C° 0 mm 1 m/s 649 mmHg 68%
    01:00 +19°C° 0 mm 1 m/s 648 mmHg 67%
    02:00 +19°C° 0 mm 1 m/s 648 mmHg 68%
    03:00 +19°C° 0 mm 1 m/s 648 mmHg 68%
    04:00 +18°C° 0 mm 1 m/s 648 mmHg 68%
    05:00 +19°C° 0 mm 1 m/s 648 mmHg 66%
    06:00 +20°C° 0 mm 1 m/s 649 mmHg 64%
    07:00 +19°C° 0 mm 0 m/s 650 mmHg 63%
    08:00 +23°C° 0 mm 1 m/s 650 mmHg 58%
    09:00 +25°C° 0 mm 1 m/s 651 mmHg 52%
    10:00 +26°C° 0 mm 2 m/s 651 mmHg 47%
    11:00 +27°C° 0 mm 2 m/s 651 mmHg 46%
    12:00 +28°C° 0 mm 2 m/s 650 mmHg 45%
    13:00 +29°C° 0 mm 2 m/s 650 mmHg 44%
    14:00 +28°C° 0 mm 2 m/s 649 mmHg 46%
    15:00 +28°C° 0 mm 2 m/s 648 mmHg 48%
    16:00 +27°C° 0 mm 2 m/s 648 mmHg 50%
    17:00 +25°C° 0 mm 1 m/s 648 mmHg 57%
    18:00 +23°C° 0 mm 1 m/s 648 mmHg 64%
    19:00 +22°C° 0 mm 1 m/s 648 mmHg 71%
    20:00 +21°C° 0 mm 1 m/s 649 mmHg 70%
    21:00 +21°C° 0 mm 1 m/s 649 mmHg 69%
    22:00 +21°C° 0 mm 1 m/s 650 mmHg 68%
    23:00 +20°C° 0 mm 1 m/s 649 mmHg 69%

    27 Mai, Dimanche

    Heure Température Précipitation Vent Pression Humidité
    00:00 +20°C° 0 mm 1 m/s 649 mmHg 69%
    01:00 +20°C° 0 mm 1 m/s 648 mmHg 70%
    02:00 +19°C° 0 mm 1 m/s 648 mmHg 70%
    03:00 +19°C° 0 mm 1 m/s 648 mmHg 71%
    04:00 +19°C° 0 mm 1 m/s 648 mmHg 71%
    05:00 +20°C° 0 mm 1 m/s 649 mmHg 69%
    06:00 +18°C° 0 mm 0 m/s 649 mmHg 67%
    07:00 +19°C° 0 mm 0 m/s 650 mmHg 65%
    08:00 +23°C° 0 mm 1 m/s 650 mmHg 61%
    09:00 +24°C° 0 mm 1 m/s 651 mmHg 56%
    10:00 +26°C° 0 mm 2 m/s 651 mmHg 51%
    11:00 +27°C° 0 mm 2 m/s 651 mmHg 49%
    12:00 +28°C° 0 mm 2 m/s 650 mmHg 47%
    13:00 +29°C° 0 mm 2 m/s 650 mmHg 44%
    14:00 +29°C° 0 mm 2 m/s 650 mmHg 45%
    15:00 +29°C° 0 mm 2 m/s 649 mmHg 46%
    16:00 +28°C° 0 mm 2 m/s 649 mmHg 47%
    17:00 +26°C° 0 mm 1 m/s 649 mmHg 54%
    18:00 +24°C° 0 mm 1 m/s 649 mmHg 61%
    19:00 +22°C° 0 mm 1 m/s 649 mmHg 68%
    20:00 +22°C° 0 mm 1 m/s 649 mmHg 68%
    21:00 +22°C° 0 mm 1 m/s 650 mmHg 68%
    22:00 +21°C° 0 mm 1 m/s 650 mmHg 69%
    23:00 +21°C° 0,2 mm 1 m/s 650 mmHg 70%

    28 Mai, Lundi

    Heure Température Précipitation Vent Pression Humidité
    00:00 +20°C° 0,2 mm 1 m/s 649 mmHg 71%
    01:00 +20°C° 0,2 mm 1 m/s 649 mmHg 72%
    02:00 +20°C° 0,1 mm 1 m/s 649 mmHg 73%
    03:00 +20°C° 0,1 mm 1 m/s 649 mmHg 73%
    04:00 +19°C° 0,1 mm 1 m/s 649 mmHg 74%
    05:00 +20°C° 0 mm 1 m/s 649 mmHg 72%
    06:00 +19°C° 0 mm 0 m/s 650 mmHg 70%
    07:00 +19°C° 0 mm 0 m/s 650 mmHg 68%
    08:00 +23°C° 0 mm 1 m/s 651 mmHg 62%
    09:00 +25°C° 0 mm 1 m/s 651 mmHg 56%
    10:00 +27°C° 0 mm 2 m/s 652 mmHg 50%
    11:00 +28°C° 0 mm 2 m/s 651 mmHg 48%
    12:00 +29°C° 0 mm 2 m/s 651 mmHg 46%
    13:00 +29°C° 0 mm 2 m/s 650 mmHg 43%
    14:00 +29°C° 0 mm 2 m/s 650 mmHg 46%
    15:00 +28°C° 0 mm 2 m/s 649 mmHg 49%
    16:00 +28°C° 0 mm 1 m/s 649 mmHg 52%
    17:00 +26°C° 0,1 mm 1 m/s 649 mmHg 58%
    18:00 +24°C° 0,1 mm 1 m/s 649 mmHg 65%
    19:00 +22°C° 0,1 mm 1 m/s 649 mmHg 71%
    20:00 +22°C° 0,7 mm 1 m/s 650 mmHg 73%
    21:00 +22°C° 0,7 mm 1 m/s 650 mmHg 74%
    22:00 +21°C° 0,7 mm 1 m/s 650 mmHg 75%
    23:00 +21°C° 0,8 mm 1 m/s 650 mmHg 78%
    Voir plus